Timeline UpdatesTrip UpdatesNews PostsPvt Posts♥♥Travel TipsAdmin PostsConv PostsFollowed PostsChat RequestsBlog PostsPNR Posts

Disclaimer
Search
 
 
Mon Oct 20, 2014 18:36:09 ISTHomeTrainsΣChainsAtlasPNRForumGalleryNewsFAQTripsMembersLoginFeedback
No Recent News for this Train
Other Trains in the News **new
Latest...
..
Mon Dec 30, 2013 (12:01AM)
⇐ Return Journey: Train# 19038

19037/Avadh Express

Time-Table HAS CHANGED.
Sep 17 2014 (3:47PM)
Change Departure Station:
Change Arrival Station:
Post a Train Travel TipPost a Train Travel Tip **new
Post a Comment/Question/Picture/VideoPost a Comment/Question/Picture/Video
Pantry/Catering
✓ Pantry Car Avbl
✓ Catering Avbl
Loco/Rake Reversals
LJN/Lucknow Junction NER (6);
RSA - Rake Sharing
19037/19038 have RSA with 19039/19040.
Rake/Coach Composition
Wap 4 BRC shed-SLR-S15-S14-S13-S12-S11-S10-S9-S8-S7-S6-S5-S4-S3-S2-S1-PC-B2-B1-A1-GEN-GEN-SLR; Total 23 Coaches
Loco
BDTS-LJN : BRC WAP-4; LJN-GKP : GD WDM-3A ;
News    PNR    Forum    Time-Table    Availability    Fare Chart    Map    Arr/Dep History    Trips    Gallery    ΣChains    X/O    Timeline    
Travel Time: 39h 0m    64 halts    Distance: 1845 km    Avg Speed: 47 km/hr
Type: Mail/Express
Zone: WR/Western
Departs @ 22:40 (Avg on time)
Platform# 1
S TW F 
Mumbai Bandra Terminus/BDTS 
Arrives @ 13:40 +2 nights (Avg 11m late)
Platform# 7
S T TF 
Gorakhpur Junction/GKP 

64 halts. 291 intermediate Stations between Mumbai Bandra Terminus and Gorakhpur Junction

Show ALL intermediate Stations  Show Old Time-Table

#TrkCodeStation NameX/OArrivesAvgDepartsAvgHaltPFDay#KmSpeedElevZoneAddress
1/==/BDTSMumbai Bandra Terminus (5)»  -22:40+0110.0234mWRMumbai 400050, Maharashtra
2/==/ADHMumbai Andheri (9)  22:56+222:58+32m816.24212mWRMumbai, Maharashtra
3/==/BVIMumbai Borivali (8)  23:13 23:16+623:18+85 2m6118.76719mWRMumbai - 400092, Maharashtra
4/==/BORBoisar (3)  00:19+1200:21+122m2287.06017mWRBoisar Tel.no-02525-266626, Maharashtra
5/==/VAPIVapi (3)X  01:31+901:33+92m12157.26327mWRVapi, Gujarat
6/==/BLValsad (3)X  01:58+502:00+62m22183.46515mWRValsad, Gujarat
7/==/STSurat (4)X  03:03+003:08+05m12252.26519mWRSurat 395001, Gujarat
8/==/AKVAnkleshwar Junction (4)X  03:54+903:56+102m12302.17319mWRAnkleshwar, Gujarat
9/==/BRCVadodara Junction (7)X  05:02+1205:12+2110m32382.07036mWRVadodara 390005, Gujarat
10/==/GDAGodhra Junction (3)  06:15+506:18+53m22455.878122mWRGodhra, Gujarat
11/==/DHDDahod (3)  07:13 07:14+3207:15+322 1m32528.990313mWRDahod, Gujarat
12/==/MGNMeghnagar (3)X  07:37+3707:39+372m12562.174317mWRJhabua, Madhya Pradesh
13/==/BMIBamnia (2)X  08:08+4008:10+402m12597.634392mWRBamnia, Madhya Pradesh
14/==/RTMRatlam Junction (7)  09:30+1209:50+1320m62642.472495mWRRatlam, Madhya Pradesh
15/==/KUHKhachrod (2)X  10:12 10:13+1610:14 10:15+182m22670.024497mWRUjjain, Madhya Pradesh
16/==/NADNagda Junction (4)X  10:55 10:50+111:00 10:55+45m--2683.868468mWRNagda, Madhya Pradesh
17/==/MEPMahidpur Road  11:14 11:10+1011:16 11:12+102m--2700.990493mWCRGogapur, Madhya Pradesh
18/==/VMAVikramgarh Alot (2)X  11:33 11:28+1111:35 11:30+112m22724.873443mWCRKota Division, Madhya Pradesh
19/==/CMUChau Mahla (3)  11:53 11:48+1211:55 11:50+122m22746.666426mWCRJhalawar, Rajasthan
20/==/SVASuwasra (2)  12:08 12:04+1212:10 12:06+132m--2762.067450mWCRSuwasra, Madhya Pradesh
21/==/SGZShamgarh (3)X  12:23 12:18+1312:25 12:20+132m--2775.465463mWCRMandsaur, Madhya Pradesh
22/==/GOHGaroth (2)  12:33 12:30+1312:35 12:32+142m22786.285441mWCRMadhya Pradesh 458880, Madhya Pradesh
23/==/BWMBhawani Mandi (3)X  12:53 12:48+1412:55 12:50+152m--2808.976384mWCRBhawani Mandi, Madhya Pradesh
24/==/JHWJhalawar Road (3)  13:08 13:03+1513:10 13:05+162m--2825.374361mWCRJhalawar City, Rajasthan
25/==/RMARamganj Mandi Junction (3)  13:20 13:15+1613:22 13:17+162m--2837.754358mWCRRamganj Mandi, Rajasthan
26/==/MKXMorak (2)  13:32 13:27+1513:34 13:29+152m22846.881337mWCRMorak, Rajasthan
27/==/DKNTDakaniya Talav (2)  14:13 14:08+2214:15 14:10+232m12899.622278mWCRKota, Rajasthan
28/==/KOTAKota Junction (5)X  14:40 14:35+1314:50 14:40+1810 5m12909.089256mWCRKota, Rajasthan
29/==/LKELakheri (3)  15:23 15:21+2915:25 15:23+312m22969.555228mWCRBundi, Rajasthan
30/==/IDGIndargarh Sumerganj Mandi (2)X  15:35+3315:37+352m22980.578247mWCRIndargarh, Rajasthan
31/==/SWMSawai Madhopur Junction (4)  16:25 16:05+3416:30 16:10+335m--21016.851266mWCRSawai Madhopur, Rajasthan
32/==/GGCGangapur City (3)X  17:24 17:25+1817:25 17:30+201 5m--21080.768270mWCRGangapur, Rajasthan
33/==/SMBJShri Mahabirji (3)  17:50 18:00+2317:52 18:02+232m221114.861240mWCRKarauli, Rajasthan
34/==/HANHindaun City (2)  18:02 18:12+2318:04 18:14+232m--21125.028230mWCRKarauli, Rajasthan
35/==/BXNBayana Junction (3)  19:20 19:25+219:25 19:30+45m121157.871198mWCRBayana, Rajasthan
36/--/RBSRupbas (2)X  20:09 19:59+1120:11 20:01+152m121192.057178mNCRJAGNER ROAD, Rajasthan
37/--/FTSFatehpur Sikri (2)  20:31 20:16+1420:33 20:18+192m121206.250176mNCRAgra, Uttar Pradesh
38/--/KLBKiraoli (1)  20:48 20:33+1920:50 20:35+202m121218.628174mNCRKiraoli, Uttar Pradesh
39/-=/IDHIdgah Agra Junction (3)  21:26 21:21+2021:28 21:23+302m121240.28168mNCRAgra, Uttar Pradesh
40/==/AFAgra Fort (3)  21:45 21:40+2421:55 21:50+3410m121242.414170mNCRRakabganj, Uttar Pradesh
41/==/TDLTundla Junction (5)XO  23:25+2523:35+3310m321265.333167mNCRDistt.Firozabad, Uttar Pradesh
42/==/FZDFirozabad (4)X  00:05+3100:07+332m231281.857164mNCRFirozabad, Uttar Pradesh
43/==/SKBShikohabad Junction (4)X  00:28+3100:30+362m231301.785166mNCRDistrict Firozabad, Uttar Pradesh
44/==/ETWEtawah (5)X  01:09+3801:11+442m331357.170154mNCRDistt. Etawah, Uttar Pradesh
45/==/BNTBharthana (3)XO  01:28+5001:30+572m331377.048147mNCRBharthana, Uttar Pradesh
46/==/PHDPhaphund (4)X  02:15+4002:17+482m331413.336146mNCRdist. Auraiya, Uttar Pradesh
47/==/CNBKanpur Central (10)  04:35+304:45+810m--31496.547128mNCRKANPUR-208 001, Uttar Pradesh
48/==/ONUnnao Junction (5)X  05:06 05:07+2905:08 05:09+312m--31513.943129mNRUnnao, Uttar Pradesh
49/==/LJNLucknow Junction NER (6)↵¶06:25+1406:50+1325m431567.712126mNERLucknow, Uttar Pradesh
50/--/LCLucknow City (3)  07:14+1307:16+162m--31572.527127mNERLucknow, Uttar Pradesh
51/--/BNZBadshahnagar (2)  07:30+1707:35 07:32+175 2m--31578.826116mNERLucknow, Uttar Pradesh
52/--/GTNRGomti Nagar (3)  07:41 07:42+1707:43 07:44+182m131583.047117mNERLucknow, Uttar Pradesh
53/--/BBKBarabanki Junction (4)  08:10+1908:12+202m--31603.471122mNRPin-225001, Uttar Pradesh
54/==/BUWBurhwal Junction (3)X  08:40 08:35+2708:42 08:37+272m--31630.469119mNERBarabanki, Uttar Pradesh
55/==/JLDJarwal Road (2)X  09:00 08:51+3209:02 08:53+332m--31646.545112mNERBehraich, Uttar Pradesh
56/==/CLJColonelGanj (2)  09:20 09:16+3309:22 09:18+352m--31663.847108mNERGonda, Uttar Pradesh
57/==%GDGonda Junction (3)X  10:15 09:55+3010:25 10:05+2710m231692.773110mNERGonda 271001, Uttar Pradesh
58%==%MURMankapur Junction (5)X  10:48 10:28+3110:50 10:30+312m--31720.670104mNERDistrict Gonda, Uttar Pradesh
59%==%MSWMaskanwa (2)  11:03 10:42+3211:05 10:44+332m--31734.633103mNERChhapaiya Rd, Uttar Pradesh
60%==%SNCSwami Narayan Chhapia (2)11:13 10:52+1211:14 10:54+131 2m--31738.9-100mNERS Narayan Chpla, Uttar Pradesh
61%==%BVBabhnan (2)  11:20 10:58+3911:22 11:00+392m--31750.362101mNERDistrict- Basti, Uttar Pradesh
62%==%BSTBasti (4)  11:50 11:30+3411:55 11:35+345m231781.17190mNERBasti 272001, Uttar Pradesh
63%==%KLDKhalilabad (3)O  12:18 12:00+3812:20 12:02+382m--31810.61386mNERKhalilabad- 272175, Uttar Pradesh
64%==%MHHMaghar (3)  12:34 12:40+2112:36 12:42+232m--31819.15083mNERNH 28. Distt- SantKabirNagar- 272173, Uttar Pradesh
65%==%SWASahjanwa (2)X  12:51 12:52+2012:53 12:54+222m--31827.42280mNERGorakhpur - 273209, Uttar Pradesh
66%==%GKPGorakhpur Junction (10)•  13:40+11-731844.6-84mNERGorakhpur 273001, Uttar Pradesh
Scroll to Top
Scroll to Bottom